This demonstration page uses our WeatherBlox Daily Observations layout. Learn more.

Left ArrowRight Arrow

39.51506, -84.39828

Hourly Observations for January 28, 2022

Temp ( °F °C ) Dew Point ( °F °C ) Humidity (%) Winds ( mph kmh ) Pressure ( in mb ) Visibility ( mi km ) Precip ( " mm )
12:15 am 00:15 Cloudy 30 -1.3 24 -4.3 80 80 WSW 5 7 30.24 1024 10 16 0.00 0.00
12:35 am 00:35 Cloudy 29 -1.4 25 -4.1 82 82 W 5 7 30.24 1024 10 16 0.00 0.00
12:55 am 00:55 Cloudy 29 -1.4 25 -4.1 82 82 W 3 6 30.23 1024 10 16 0.00 0.00
1:15 am 01:15 Cloudy with Light Rain 29 -1.5 25 -4.1 83 83 WSW 5 7 30.24 1024 10 16 0.00 0.00
1:35 am 01:35 Cloudy 29 -1.4 24 -4.2 81 81 W 3 6 30.23 1024 10 16 0.00 0.00
1:55 am 01:55 Cloudy 29 -1.5 24 -4.3 81 81 Calm 30.22 1023 10 16 0.00 0.00
2:15 am 02:15 Cloudy 29 -1.4 24 -4.4 80 80 Calm 30.22 1023 10 16 0.00 0.00
2:35 am 02:35 Cloudy 29 -1.5 25 -4 83 83 Calm 30.22 1023 10 16 0.00 0.00
2:55 am 02:55 Cloudy 29 -1.8 25 -4 85 85 Calm 30.22 1023 10 16 0.00 0.00
3:15 am 03:15 Cloudy 29 -1.8 25 -4.1 84 84 W 3 6 30.21 1023 10 16 0.00 0.00
3:35 am 03:35 Cloudy 29 -1.9 25 -3.8 87 87 Calm 30.21 1023 10 16 0.00 0.00
3:55 am 03:55 Cloudy 29 -1.9 25 -3.7 88 88 Calm 30.20 1023 10 16 0.00 0.00
4:15 am 04:15 Cloudy with Light Snow 28 -2 25 -3.8 88 88 Calm 30.20 1023 7 11 0.00 0.00
4:35 am 04:35 Cloudy with Light Snow 28 -2.2 26 -3.6 90 90 Calm 30.20 1023 4 6 0.00 0.00
4:55 am 04:55 Cloudy with Light Snow 28 -2.2 26 -3.3 92 92 Calm 30.19 1022 7 11 0.00 0.00
5:15 am 05:15 Cloudy 28 -2 26 -3.5 90 90 Calm 30.19 1022 7 11 0.00 0.00
5:35 am 05:35 Cloudy with Mist and Fog 27 -2.8 25 -3.7 94 94 Calm 30.19 1022 7 11 0.00 0.00
5:55 am 05:55 Cloudy with Mist and Fog 28 -2.4 26 -3.3 94 94 Calm 30.19 1022 7 11 0.00 0.00
6:15 am 06:15 Cloudy with Light Snow 28 -2.4 26 -3.5 92 92 NE 3 6 30.19 1022 4 6 0.00 0.00
6:35 am 06:35 Cloudy with Light Snow 28 -2.4 26 -3.4 93 93 NE 3 6 30.20 1023 3 5 0.00 0.00
6:55 am 06:55 Cloudy with Light Snow 28 -2.5 26 -3.5 93 93 Calm 30.20 1023 7 11 0.00 0.00
7:15 am 07:15 Cloudy with Mist and Fog 28 -2.4 26 -3.6 92 92 NE 3 6 30.20 1023 7 11 0.00 0.00
7:35 am 07:35 Cloudy with Mist and Fog 28 -2.5 25 -3.7 92 92 NE 3 6 30.20 1023 7 11 0.00 0.00
7:55 am 07:55 Cloudy with Mist and Fog 28 -2.5 25 -3.9 90 90 NE 5 7 30.20 1023 5 8 0.00 0.00
8:15 am 08:15 Cloudy with Mist and Fog 28 -2.4 25 -3.9 90 90 NE 3 6 30.20 1023 5 8 0.00 0.00
8:35 am 08:35 Cloudy with Mist and Fog 28 -2.1 25 -3.9 88 88 NE 6 9 30.21 1023 5 8 0.00 0.00
8:55 am 08:55 Cloudy with Light Snow 28 -2.1 25 -3.8 88 88 NE 6 9 30.21 1023 3 4 0.00 0.00
9:15 am 09:15 Cloudy with Light Snow 28 -2.2 25 -3.8 89 89 ENE 5 7 30.21 1023 4 6 0.00 0.00
9:35 am 09:35 Cloudy with Mist and Fog 28 -2.1 25 -3.7 89 89 NE 6 9 30.21 1023 5 8 0.00 0.00
9:55 am 09:55 Cloudy with Light Snow 28 -2 26 -3.5 90 90 NE 7 11 30.21 1023 2 3 0.00 0.00
10:15 am 10:15 Cloudy with Light Snow 29 -1.8 26 -3.1 91 91 ENE 7 11 30.20 1023 2 2 0.00 0.00
10:35 am 10:35 Cloudy with Light Snow 29 -1.9 25 -3.9 86 86 NNE 13 20 30.21 1023 4 6 0.00 0.00
10:55 am 10:55 Cloudy with Light Snow 28 -2.4 24 -4.5 86 86 ENE 12 19 30.21 1023 7 11 0.00 0.00
11:15 am 11:15 Cloudy with Light Snow 28 -2.5 23 -4.9 84 84 NE 13 20 30.21 1023 5 8 0.00 0.00
11:35 am 11:35 Cloudy with Light Snow 28 -2.4 23 -4.9 83 83 NE 10 17 30.21 1023 5 8 0.00 0.00
11:55 am 11:55 Cloudy with Light Snow 27 -2.9 22 -5.6 82 82 NE 12 19 30.21 1023 5 8 0.00 0.00
12:15 pm 12:15 Cloudy with Light Snow 26 -3.2 21 -6.1 81 81 NE 12 19 30.20 1023 7 11 0.00 0.00
12:35 pm 12:35 Cloudy with Light Snow 25 -3.9 19 -7 79 79 NE 13 20 30.21 1023 7 11 0.00 0.00
12:55 pm 12:55 Cloudy with Light Snow 24 -4.3 19 -7.3 80 80 NE 16 26 30.21 1023 3 5 0.00 0.00
1:15 pm 13:15 Cloudy with Light Snow 25 -4.1 19 -7.2 79 79 NE 12 19 30.20 1023 5 8 0.00 0.00
1:35 pm 13:35 Cloudy with Light Snow 23 -4.9 17 -8.2 78 78 NE 14 22 30.20 1023 5 8 0.00 0.00
1:55 pm 13:55 Cloudy with Light Snow 22 -5.4 17 -8.2 81 81 NE 13 20 30.20 1023 3 5 0.00 0.00
2:15 pm 14:15 Cloudy with Light Snow 21 -5.9 17 -8.6 81 81 NE 15 24 30.20 1023 2 3 0.00 0.00
2:35 pm 14:35 Cloudy with Light Snow 21 -6.3 16 -8.8 83 83 NE 15 24 30.20 1023 2 3 0.00 0.00
2:55 pm 14:55 Cloudy with Light Snow 20 -6.6 16 -8.9 84 84 NE 12 19 30.20 1023 2 3 0.00 0.00
3:15 pm 15:15 Cloudy with Light Snow 20 -6.9 15 -9.2 84 84 NE 14 22 30.20 1023 2 3 0.00 0.00
3:35 pm 15:35 Cloudy with Light Snow 19 -7.2 15 -9.5 84 84 NE 10 17 30.22 1023 2 3 0.00 0.00
3:55 pm 15:55 Cloudy with Light Snow 19 -7.3 14 -9.9 82 82 NE 10 17 30.22 1023 3 4 0.00 0.00
4:15 pm 16:15 Cloudy with Light Snow 19 -7.5 14 -10.2 81 81 NE 10 17 30.23 1024 3 4 0.00 0.00
4:35 pm 16:35 Cloudy with Light Snow 18 -7.7 13 -10.3 82 82 NE 12 19 30.24 1024 3 4 0.00 0.00
4:55 pm 16:55 Cloudy with Light Snow 18 -7.9 13 -10.5 82 82 NE 9 15 30.25 1024 3 4 0.00 0.00
5:15 pm 17:15 Cloudy with Light Snow 18 -8 13 -10.7 81 81 NNE 12 19 30.25 1024 3 4 0.00 0.00
5:35 pm 17:35 Cloudy with Light Snow 17 -8.1 13 -10.7 82 82 NE 12 19 30.26 1025 3 5 0.00 0.00
5:55 pm 17:55 Cloudy with Light Snow 17 -8.2 13 -10.7 82 82 NE 9 15 30.27 1025 2 3 0.00 0.00
6:15 pm 18:15 Cloudy with Light Snow 17 -8.2 13 -10.5 84 84 NE 6 9 30.27 1025 3 4 0.00 0.00
6:35 pm 18:35 Cloudy with Light Snow 17 -8.2 13 -10.8 82 82 NE 10 17 30.28 1025 5 8 0.00 0.00
6:55 pm 18:55 Cloudy 17 -8.3 11 -11.6 77 77 NNE 10 17 30.29 1026 10 16 0.00 0.00
7:15 pm 19:15 Cloudy 17 -8.5 10 -12.1 76 76 NNE 8 13 30.30 1026 10 16 0.00 0.00
7:35 pm 19:35 Cloudy with Light Snow 16 -8.9 10 -12.2 77 77 NNE 8 13 30.30 1026 10 16 0.00 0.00
7:55 pm 19:55 Cloudy with Light Snow 15 -9.4 10 -12.3 80 80 NNE 8 13 30.31 1026 10 16 0.00 0.00
8:15 pm 20:15 Cloudy with Light Snow 15 -9.2 10 -12.2 79 79 NNE 10 17 30.31 1026 10 16 0.00 0.00
8:35 pm 20:35 Cloudy 16 -8.8 10 -12 78 78 NNE 10 17 30.31 1026 10 16 0.00 0.00
8:55 pm 20:55 Cloudy 16 -9.1 10 -12.2 78 78 NNE 9 15 30.31 1026 10 16 0.00 0.00
9:15 pm 21:15 Cloudy 15 -9.3 10 -12.4 78 78 NNE 9 15 30.32 1027 10 16 0.00 0.00
9:35 pm 21:35 Cloudy 15 -9.6 9 -12.6 79 79 NNE 10 17 30.32 1027 10 16 0.00 0.00
9:55 pm 21:55 Partly Cloudy 14 -9.9 8 -13.1 78 78 NE 9 15 30.33 1027 10 16 0.00 0.00
10:15 pm 22:15 Partly Cloudy 14 -10.2 8 -13.2 79 79 NE 10 17 30.34 1028 10 16 0.00 0.00
10:35 pm 22:35 Partly Cloudy 13 -10.3 6 -14.6 71 71 NE 9 15 30.34 1028 10 16 0.00 0.00
10:55 pm 22:55 Partly Cloudy 13 -10.8 4 -15.5 69 69 NE 8 13 30.35 1028 10 16 0.00 0.00
11:15 pm 23:15 Partly Cloudy 11 -11.4 3 -15.9 70 70 NE 6 9 30.36 1028 10 16 0.00 0.00
11:35 pm 23:35 Partly Cloudy 11 -11.7 3 -16.2 70 70 NE 6 9 30.36 1028 10 16 0.00 0.00
11:55 pm 23:55 Mostly Cloudy 11 -11.6 3 -16 70 70 NE 3 6 30.35 1028 10 16 0.00 0.00

Powered by AerisWeather